Location: Crescent
(42.8242°N, 73.7329°W)
Time: 02:55:54
(UTC+00:00)

Tiros 1 - Pass Details

Date: 18 February 2026
Orbit: 618 x 649 km, 48.4° (Epoch: 7 March)

Event Time Altitude Azimuth Distance (km) Brightness Sun altitude
Rises 13:11:15 0° 229° (SW) 2,910 10.3 13.3°
Reaches altitude 10° 13:13:36 10° 225° (SW) 2,000 9.6 13.7°
Maximum altitude 13:18:07 58° 147° (SSE) 730 8.2 14.4°
Drops below altitude 10° 13:22:36 10° 69° (ENE) 1,990 10.3 15.1°
Sets 13:24:56 0° 65° (ENE) 2,896 11.0 15.5°
